Weather History for KALM - June, 2013

Change the Weather History Date:

Friday, June 28, 2013

  Actual Average Record
Temperature  
Mean Temperature 89 °F -  
Max Temperature 98 °F 97 °F 108 °F (1980)
Min Temperature 80 °F 65 °F 56 °F (1985)
Cooling Degree Days 24    
Growing Degree Days 39 (Base 50)    
Moisture  
Dew Point 38 °F    
Average Humidity 17    
Maximum Humidity 23    
Minimum Humidity 11    
Precipitation  
Precipitation 0.00 in - - ()
Sea Level Pressure  
Sea Level Pressure 30.15 in    
Wind  
Wind Speed 11 mph (NW)    
Max Wind Speed 18 mph    
Max Gust Speed 25 mph    
Visibility 10 miles    
Events      
Averages and records for this station are not official NWS values.
T = Trace of Precipitation, MM = Missing Value Source: NWS Daily Summary

Daily Weather History Graph

Daily Weather History Graph

Search for Another Location

Airport or City:

Trip Planner

Search our weather history database for the weather conditions in past years. The results will help you decide how hot, cold, wet, or windy it might be!

Date:

Astronomy

Jun. 28, 2013 Rise Set
Actual Time 5:58 AM MDT 8:16 PM MDT
Civil Twilight 5:29 AM MDT 8:44 PM MDT
Nautical Twilight 4:54 AM MDT 9:19 PM MDT
Astronomical Twilight 4:16 AM MDT 9:57 PM MDT
Moon No Moon Rise 11:48 AM MDT (6/28)
Length of Visible Light 15h 15m
Length of Day
14h 17m
Waning Gibbous, 65% of the Moon is Illuminated
Jun 28
Waning Gibbous
Jun 29
Last Quarter
Jul 8
New
Jul 15
First Quarter
Jul 22
Full

Hourly Weather History & Observations

Time (MDT) Temp. Dew Point Humidity Pressure Visibility Wind Dir Wind Speed Gust Speed Precip Events Conditions
12:35 AM 91.4 °F 35.6 °F 14% 30.08 in 10.0 mi South 17.3 mph 21.9 mph N/A   Clear
12:55 AM 89.6 °F 37.4 °F 16% 30.08 in 10.0 mi South 17.3 mph 21.9 mph N/A   Clear
1:15 AM 89.6 °F 37.4 °F 16% 30.08 in 10.0 mi South 15.0 mph 24.2 mph N/A   Clear
1:35 AM 87.8 °F 39.2 °F 18% 30.09 in 10.0 mi South 13.8 mph - N/A   Clear
1:55 AM 84.2 °F 39.2 °F 20% 30.10 in 10.0 mi SSW 15.0 mph - N/A   Clear
2:15 AM 87.8 °F 39.2 °F 18% 30.10 in 10.0 mi South 13.8 mph - N/A   Clear
2:35 AM 86.0 °F 39.2 °F 19% 30.11 in 10.0 mi South 6.9 mph - N/A   Clear
2:55 AM 86.0 °F 39.2 °F 19% 30.11 in 10.0 mi SSW 11.5 mph 20.7 mph N/A   Clear
3:15 AM 87.8 °F 39.2 °F 18% 30.11 in 10.0 mi South 10.4 mph 17.3 mph N/A   Clear
3:35 AM 84.2 °F 39.2 °F 20% 30.10 in 10.0 mi SSE 11.5 mph - N/A   Clear
3:55 AM 84.2 °F 39.2 °F 20% 30.10 in 10.0 mi SSE 11.5 mph - N/A   Clear
4:15 AM 84.2 °F 39.2 °F 20% 30.10 in 10.0 mi South 10.4 mph - N/A   Clear
4:35 AM 84.2 °F 39.2 °F 20% 30.10 in 10.0 mi South 12.7 mph - N/A   Clear
4:55 AM 84.2 °F 39.2 °F 20% 30.10 in 10.0 mi SSE 10.4 mph - N/A   Clear
5:15 AM 84.2 °F 39.2 °F 20% 30.12 in 10.0 mi South 8.1 mph - N/A   Clear
5:35 AM 82.4 °F 39.2 °F 21% 30.15 in 10.0 mi North 15.0 mph - N/A   Clear
5:55 AM 84.2 °F 37.4 °F 19% 30.16 in 10.0 mi ESE 4.6 mph - N/A   Clear
6:55 AM 84.2 °F 37.4 °F 19% 30.18 in 10.0 mi East 8.1 mph - N/A   Clear
7:15 AM 84.2 °F 37.4 °F 19% 30.19 in 10.0 mi NNE 3.5 mph - N/A   Clear
7:35 AM 82.4 °F 37.4 °F 20% 30.20 in 10.0 mi NW 12.7 mph - N/A   Clear
7:55 AM 80.6 °F 35.6 °F 20% 30.22 in 10.0 mi WNW 11.5 mph - N/A   Clear
8:15 AM 80.6 °F 37.4 °F 21% 30.23 in 10.0 mi NW 6.9 mph - N/A   Clear
8:35 AM 80.6 °F 37.4 °F 21% 30.23 in 10.0 mi SE 4.6 mph - N/A   Clear
8:55 AM 82.4 °F 37.4 °F 20% 30.25 in 10.0 mi South 3.5 mph - N/A   Clear
9:15 AM 82.4 °F 37.4 °F 20% 30.26 in 10.0 mi South 3.5 mph - N/A   Clear
9:35 AM 84.2 °F 37.4 °F 19% 30.26 in 10.0 mi South 3.5 mph - N/A   Clear
9:55 AM 86.0 °F 37.4 °F 18% 30.25 in 10.0 mi WNW 4.6 mph - N/A   Clear
10:15 AM 87.8 °F 37.4 °F 17% 30.24 in 10.0 mi West 4.6 mph - N/A   Clear
10:35 AM 89.6 °F 37.4 °F 16% 30.24 in 10.0 mi WNW 5.8 mph - N/A   Clear
10:55 AM 91.4 °F 37.4 °F 15% 30.23 in 10.0 mi West 8.1 mph - N/A   Clear
11:15 AM 93.2 °F 35.6 °F 13% 30.22 in 10.0 mi WNW 11.5 mph 16.1 mph N/A   Clear
11:35 AM 93.2 °F 37.4 °F 14% 30.22 in 10.0 mi West 10.4 mph 18.4 mph N/A   Clear
12:15 PM 93.2 °F 35.6 °F 13% 30.21 in 10.0 mi West 6.9 mph - N/A   Clear
12:35 PM 93.2 °F 35.6 °F 13% 30.21 in 10.0 mi South 11.5 mph 16.1 mph N/A   Clear
12:55 PM 93.2 °F 35.6 °F 13% 30.20 in 9.0 mi WSW 6.9 mph - N/A   Clear
1:15 PM 95.0 °F 35.6 °F 12% 30.19 in 10.0 mi WNW 3.5 mph - N/A   Clear
1:35 PM 96.8 °F 35.6 °F 12% 30.18 in 10.0 mi SSE 5.8 mph - N/A   Clear
1:55 PM 95.0 °F 35.6 °F 12% 30.17 in 10.0 mi NW 3.5 mph - N/A   Clear
2:15 PM 98.6 °F 35.6 °F 11% 30.16 in 10.0 mi SW 6.9 mph - N/A   Clear
2:35 PM 98.6 °F 35.6 °F 11% 30.14 in 10.0 mi NW 10.4 mph - N/A   Clear
2:55 PM 98.6 °F 35.6 °F 11% 30.14 in 10.0 mi NE 4.6 mph - N/A   Clear
3:15 PM 98.6 °F 35.6 °F 11% 30.12 in 10.0 mi North 4.6 mph - N/A   Clear
3:35 PM 98.6 °F 37.4 °F 12% 30.12 in 10.0 mi NNW 13.8 mph - N/A   Clear
3:55 PM 98.6 °F 37.4 °F 12% 30.12 in 10.0 mi NNW 12.7 mph 19.6 mph N/A   Clear
4:15 PM 96.8 °F 39.2 °F 14% 30.11 in 10.0 mi North 17.3 mph 25.3 mph N/A   Clear
4:35 PM 96.8 °F 37.4 °F 13% 30.11 in 10.0 mi North 18.4 mph 21.9 mph N/A   Clear
4:55 PM 98.6 °F 37.4 °F 12% 30.11 in 10.0 mi North 12.7 mph - N/A   Clear
5:15 PM 98.6 °F 37.4 °F 12% 30.10 in 10.0 mi North 12.7 mph - N/A   Clear
5:35 PM 98.6 °F 37.4 °F 12% 30.10 in 10.0 mi NNW 11.5 mph 16.1 mph N/A   Clear
5:55 PM 98.6 °F 37.4 °F 12% 30.09 in 10.0 mi NNW 17.3 mph 23.0 mph N/A   Clear
6:15 PM 95.0 °F 39.2 °F 14% 30.09 in 10.0 mi North 17.3 mph 20.7 mph N/A   Clear
6:35 PM 95.0 °F 37.4 °F 13% 30.09 in 10.0 mi North 8.1 mph - N/A   Clear
6:55 PM 95.0 °F 39.2 °F 14% 30.10 in 10.0 mi North 10.4 mph - N/A   Clear
7:15 PM 95.0 °F 37.4 °F 13% 30.10 in 10.0 mi North 5.8 mph - N/A   Clear
7:35 PM 93.2 °F 37.4 °F 14% 30.10 in 10.0 mi North 6.9 mph - N/A   Clear
7:55 PM 93.2 °F 37.4 °F 14% 30.10 in 10.0 mi North 5.8 mph - N/A   Clear
8:15 PM 91.4 °F 39.2 °F 16% 30.11 in 10.0 mi North 9.2 mph - N/A   Clear
8:35 PM 89.6 °F 39.2 °F 17% 30.11 in 10.0 mi NNE 9.2 mph - N/A   Clear
8:55 PM 86.0 °F 39.2 °F 19% 30.11 in 10.0 mi NE 8.1 mph - N/A   Clear
9:15 PM 84.2 °F 39.2 °F 20% 30.12 in 10.0 mi NNE 6.9 mph - N/A   Clear
9:35 PM 86.0 °F 39.2 °F 19% 30.12 in 10.0 mi NNW 9.2 mph - N/A   Clear
9:55 PM 86.0 °F 39.2 °F 19% 30.13 in 10.0 mi NNE 6.9 mph - N/A   Clear
10:15 PM 86.0 °F 39.2 °F 19% 30.13 in 10.0 mi NE 6.9 mph - N/A   Clear
10:35 PM 84.2 °F 39.2 °F 20% 30.13 in 10.0 mi North 3.5 mph - N/A   Clear
10:55 PM 84.2 °F 39.2 °F 20% 30.13 in 10.0 mi Calm Calm - N/A   Clear
11:15 PM 82.4 °F 39.2 °F 21% 30.13 in 10.0 mi NE 4.6 mph - N/A   Clear
11:35 PM 82.4 °F 39.2 °F 21% 30.14 in 10.0 mi Calm Calm - N/A   Clear
11:55 PM 80.6 °F 39.2 °F 23% 30.14 in 10.0 mi West 4.6 mph - N/A   Clear